Location: Gerlach
(40.6516°N, 119.3568°W)
Time: 15:14:37
(UTC-07:00)

A-11 Canister half - Pass Details

Date: 26 February 2024
Orbit: 1525 x 1683 km, 47.3° (Epoch: 21 April)

Event Time Altitude Azimuth Distance (km) Brightness Sun altitude
Rises 21:51:34 0° 261° (W) 4,759 12.0 -45.5°
Reaches altitude 10° 21:54:44 10° 264° (W) 3,755 11.4 -46.0°
Enters shadow 22:00:31 41° 281° (WNW) 2,124 9.8 -46.9°
